When you browse on this site, cookies collect data to enhance your experience and personalize the content and advertising you see.
Visit our Privacy Policy to learn more. By continuing to use the site, you agree to this use of cookies and data.
  • en Suisse
  • Liste des pays
  • À 7 jours
  • Température de l'eau
  • Carte météo
  • Widgets météo
  • user-avatar
    Se connecter

    Météo par heure à Bolshoe Kasimovo

    Ce jour, 13 Novembre, Mercredi

    Heure Température Précipitation Vent Pression Humidité
    00:00 +3°C° 0 mm 1 m/s 757 mmHg 88%
    01:00 +3°C° 0 mm 1 m/s 757 mmHg 89%
    02:00 +2°C° 0 mm 2 m/s 758 mmHg 89%
    03:00 +2°C° 0 mm 2 m/s 757 mmHg 90%
    04:00 +2°C° 0 mm 2 m/s 757 mmHg 90%
    05:00 +1°C° 0 mm 2 m/s 757 mmHg 90%
    06:00 +1°C° 0 mm 3 m/s 757 mmHg 90%
    07:00 +1°C° 0 mm 3 m/s 757 mmHg 89%
    08:00 +1°C° 0 mm 3 m/s 758 mmHg 89%
    09:00 +1°C° 0 mm 4 m/s 758 mmHg 84%
    10:00 +3°C° 0 mm 4 m/s 757 mmHg 80%
    11:00 +4°C° 0 mm 4 m/s 757 mmHg 75%
    12:00 +5°C° 0 mm 4 m/s 757 mmHg 74%
    13:00 +5°C° 0 mm 4 m/s 757 mmHg 73%
    14:00 +5°C° 0 mm 4 m/s 757 mmHg 72%
    15:00 +5°C° 0 mm 4 m/s 757 mmHg 76%
    16:00 +4°C° 0 mm 4 m/s 757 mmHg 80%
    17:00 +3°C° 0 mm 4 m/s 757 mmHg 84%
    18:00 +3°C° 0 mm 4 m/s 757 mmHg 85%
    19:00 +3°C° 0 mm 4 m/s 757 mmHg 86%
    20:00 +1°C° 0 mm 5 m/s 757 mmHg 87%
    21:00 +1°C° 0 mm 5 m/s 757 mmHg 87%
    22:00 +1°C° 0 mm 5 m/s 757 mmHg 88%
    23:00 +1°C° 0 mm 5 m/s 757 mmHg 88%

    Demain, 14 Novembre, Jeudi

    Heure Température Précipitation Vent Pression Humidité
    00:00 +1°C° 0 mm 5 m/s 757 mmHg 88%
    01:00 +1°C° 0 mm 5 m/s 757 mmHg 89%
    02:00 0°C° 0 mm 5 m/s 757 mmHg 89%
    03:00 0°C° 0 mm 5 m/s 757 mmHg 88%
    04:00 0°C° 0 mm 5 m/s 756 mmHg 88%
    05:00 0°C° 0 mm 5 m/s 756 mmHg 88%
    06:00 0°C° 0 mm 5 m/s 756 mmHg 87%
    07:00 0°C° 0 mm 5 m/s 757 mmHg 85%
    08:00 0°C° 0 mm 5 m/s 757 mmHg 84%
    09:00 +1°C° 0 mm 5 m/s 757 mmHg 78%
    10:00 +2°C° 0 mm 5 m/s 757 mmHg 73%
    11:00 +5°C° 0 mm 5 m/s 757 mmHg 67%
    12:00 +5°C° 0 mm 5 m/s 757 mmHg 65%
    13:00 +5°C° 0 mm 4 m/s 757 mmHg 64%
    14:00 +5°C° 0 mm 4 m/s 757 mmHg 62%
    15:00 +4°C° 0 mm 4 m/s 757 mmHg 66%
    16:00 +3°C° 0 mm 4 m/s 757 mmHg 70%
    17:00 +1°C° 0 mm 4 m/s 757 mmHg 74%
    18:00 +1°C° 0 mm 4 m/s 757 mmHg 75%
    19:00 +1°C° 0 mm 4 m/s 757 mmHg 76%
    20:00 +1°C° 0 mm 5 m/s 758 mmHg 76%
    21:00 +1°C° 0 mm 5 m/s 758 mmHg 77%
    22:00 +1°C° 0 mm 5 m/s 758 mmHg 77%
    23:00 +1°C° 0 mm 5 m/s 758 mmHg 77%

    Après-demain, 15 Novembre, Vendredi

    Heure Température Précipitation Vent Pression Humidité
    00:00 +1°C° 0 mm 5 m/s 758 mmHg 78%
    01:00 +1°C° 0 mm 4 m/s 758 mmHg 79%
    02:00 0°C° 0 mm 4 m/s 758 mmHg 79%
    03:00 0°C° 0 mm 4 m/s 758 mmHg 81%
    04:00 0°C° 0 mm 4 m/s 758 mmHg 82%
    05:00 0°C° 0 mm 4 m/s 758 mmHg 83%
    06:00 0°C° 0 mm 4 m/s 758 mmHg 82%
    07:00 0°C° 0 mm 4 m/s 758 mmHg 82%
    08:00 0°C° 0 mm 4 m/s 758 mmHg 81%
    09:00 +1°C° 0 mm 5 m/s 759 mmHg 79%
    10:00 +2°C° 0 mm 5 m/s 759 mmHg 74%
    11:00 +3°C° 0 mm 5 m/s 759 mmHg 69%
    12:00 +5°C° 0 mm 5 m/s 759 mmHg 69%
    13:00 +5°C° 0 mm 5 m/s 758 mmHg 69%
    14:00 +5°C° 0 mm 5 m/s 758 mmHg 69%
    15:00 +4°C° 0 mm 4 m/s 758 mmHg 73%
    16:00 +3°C° 0 mm 4 m/s 758 mmHg 77%
    17:00 +3°C° 0 mm 4 m/s 758 mmHg 81%
    18:00 +1°C° 0 mm 4 m/s 758 mmHg 82%
    19:00 +1°C° 0 mm 4 m/s 758 mmHg 82%
    20:00 +1°C° 0 mm 4 m/s 759 mmHg 83%
    21:00 +1°C° 0 mm 4 m/s 759 mmHg 84%
    22:00 +1°C° 0 mm 4 m/s 759 mmHg 84%
    23:00 0°C° 0 mm 4 m/s 759 mmHg 85%

    16 Novembre, Samedi

    Heure Température Précipitation Vent Pression Humidité
    00:00 0°C° 0 mm 4 m/s 759 mmHg 85%
    01:00 0°C° 0 mm 4 m/s 759 mmHg 85%
    02:00 0°C° 0 mm 4 m/s 759 mmHg 85%
    03:00 +1°C° 0 mm 3 m/s 759 mmHg 86%
    04:00 0°C° 0 mm 3 m/s 759 mmHg 86%
    05:00 0°C° 0 mm 3 m/s 759 mmHg 87%
    06:00 0°C° 0 mm 3 m/s 759 mmHg 86%
    07:00 0°C° 0 mm 3 m/s 759 mmHg 85%
    08:00 0°C° 0 mm 3 m/s 760 mmHg 84%
    09:00 0°C° 0 mm 4 m/s 760 mmHg 79%
    10:00 +1°C° 0 mm 4 m/s 760 mmHg 74%
    11:00 +3°C° 0 mm 4 m/s 760 mmHg 70%
    12:00 +3°C° 0 mm 4 m/s 760 mmHg 70%
    13:00 +3°C° 0 mm 4 m/s 759 mmHg 70%
    14:00 +3°C° 0 mm 3 m/s 759 mmHg 70%
    15:00 +2°C° 0 mm 3 m/s 759 mmHg 73%
    16:00 +2°C° 0 mm 3 m/s 759 mmHg 76%
    17:00 +1°C° 0 mm 3 m/s 759 mmHg 79%
    18:00 +1°C° 0 mm 3 m/s 759 mmHg 81%
    19:00 0°C° 0 mm 3 m/s 759 mmHg 82%
    20:00 0°C° 0 mm 3 m/s 760 mmHg 83%
    21:00 0°C° 0 mm 3 m/s 760 mmHg 84%
    22:00 0°C° 0 mm 3 m/s 760 mmHg 85%
    23:00 -1°C° 0 mm 3 m/s 760 mmHg 86%

    17 Novembre, Dimanche

    Heure Température Précipitation Vent Pression Humidité
    00:00 -1°C° 0 mm 3 m/s 760 mmHg 87%
    01:00 -1°C° 0 mm 3 m/s 760 mmHg 87%
    02:00 -1°C° 0 mm 3 m/s 760 mmHg 88%
    03:00 -1°C° 0 mm 2 m/s 760 mmHg 89%
    04:00 -1°C° 0 mm 2 m/s 760 mmHg 89%
    05:00 -1°C° 0 mm 2 m/s 760 mmHg 90%
    06:00 -1°C° 0 mm 2 m/s 761 mmHg 89%
    07:00 -1°C° 0 mm 2 m/s 761 mmHg 88%
    08:00 -1°C° 0 mm 2 m/s 761 mmHg 87%
    09:00 +1°C° 0 mm 2 m/s 761 mmHg 81%
    10:00 +2°C° 0 mm 3 m/s 761 mmHg 75%
    11:00 +3°C° 0 mm 3 m/s 761 mmHg 69%
    12:00 +3°C° 0 mm 3 m/s 761 mmHg 70%
    13:00 +4°C° 0 mm 2 m/s 761 mmHg 70%
    14:00 +4°C° 0 mm 2 m/s 760 mmHg 71%
    15:00 +3°C° 0 mm 2 m/s 760 mmHg 75%
    16:00 +2°C° 0 mm 2 m/s 760 mmHg 80%
    17:00 +1°C° 0 mm 2 m/s 760 mmHg 84%
    18:00 +1°C° 0 mm 2 m/s 760 mmHg 84%
    19:00 +1°C° 0 mm 2 m/s 760 mmHg 85%
    20:00 +1°C° 0 mm 2 m/s 760 mmHg 86%
    21:00 -1°C° 0 mm 2 m/s 760 mmHg 86%
    22:00 -1°C° 0 mm 2 m/s 760 mmHg 86%
    23:00 -1°C° 0 mm 2 m/s 760 mmHg 87%

    18 Novembre, Lundi

    Heure Température Précipitation Vent Pression Humidité
    00:00 -1°C° 0 mm 2 m/s 760 mmHg 87%
    01:00 -1°C° 0 mm 2 m/s 760 mmHg 87%
    02:00 -1°C° 0 mm 2 m/s 760 mmHg 87%
    03:00 -1°C° 0 mm 2 m/s 760 mmHg 87%
    04:00 -1°C° 0 mm 2 m/s 760 mmHg 88%
    05:00 -1°C° 0 mm 2 m/s 759 mmHg 88%
    06:00 -1°C° 0 mm 2 m/s 759 mmHg 88%
    07:00 -1°C° 0 mm 2 m/s 759 mmHg 87%
    08:00 -1°C° 0 mm 2 m/s 759 mmHg 87%
    09:00 +2°C° 0 mm 2 m/s 759 mmHg 82%
    10:00 +2°C° 0 mm 3 m/s 759 mmHg 76%
    11:00 +3°C° 0 mm 3 m/s 759 mmHg 71%
    12:00 +4°C° 0 mm 2 m/s 759 mmHg 73%
    13:00 +4°C° 0 mm 2 m/s 759 mmHg 74%
    14:00 +4°C° 0 mm 2 m/s 758 mmHg 76%
    15:00 +3°C° 0 mm 2 m/s 758 mmHg 79%
    16:00 +2°C° 0 mm 2 m/s 758 mmHg 82%
    17:00 +2°C° 0 mm 2 m/s 758 mmHg 85%
    18:00 +2°C° 0 mm 1 m/s 758 mmHg 85%
    19:00 +2°C° 0 mm 1 m/s 758 mmHg 85%
    20:00 +2°C° 0 mm 1 m/s 758 mmHg 85%
    21:00 +2°C° 0 mm 1 m/s 758 mmHg 84%
    22:00 +2°C° 0 mm 1 m/s 758 mmHg 84%
    23:00 +2°C° 0 mm 1 m/s 758 mmHg 83%
    Voir plus